Location: ????????
(55.4000°N, 39.1167°E)
Time: 07:32:51
(UTC+00:00)

IRIDIUM 106 - Pass Details

Date: 19 May 2025
Orbit: 776 x 779 km, 86.4° (Epoch: 15 June)

Event Time Altitude Azimuth Distance (km) Brightness Sun altitude
Exits shadow 22:59:10 16° 197° (SSW) 1,945 5.7 -11.7°
Maximum altitude 23:03:21 66° 278° (W) 850 4.5 -11.5°
Drops below altitude 10° 23:08:35 10° 1° (N) 2,344 8.0 -11.2°
Sets 23:10:58 0° 4° (N) 3,276 9.0 -11.0°
